Погода в Оричах

Россия / Кировская область     58°24′04″N   49°03′34″E
В апреле 2022 года жителям России запретили посещать сайт meteo.paraplan.net по решению Генеральной прокуратуры. Аудитория сайта уменьшилась в 10 раз. Владельцы сайта не видят смысла в поддержке погодного сервера в таких условиях. Сайт будет закрыт в октябре.
темп.,
°C
ветер,
м/с
пор.,
м/с
влажн.,
%
обл.,
%
осадки,
мм/ч
давл.,
гПа
погр.,
м
3 октября, пн
пн300:00+10ююз2897100 0.1 1010197
03:00+12ю2498100 0.2 1010163
06:00+13ююв2798100 0.0 1011268
09:00+14ююв3993100 0.0 1012453
12:00+15ю4989100 0.5 1013699
15:00+17ю51173100 0.6 1013747
18:00+14ююв51374100 0.0 1015519
21:00+13ю51468100 0.0 1016620
4 октября, вт
вт400:00+12ю41366100 0.0 1017473
03:00+11ю41164100 0.0 1018450
06:00+10ю41166100 0.0 1020527
09:00+12ю4962100 0.0 1021562
12:00+12ю4867100 0.0 1022612
15:00+12ююв4864100 0.0 1022619
18:00+9ююв397757 0.0 1023274
21:00+8юв3875100 0.0 1023225
5 октября, ср
ср500:00+9ююв41262100 0.0 1023486
03:00+8ююв41088100 0.6 1022512
06:00+9ю41187100 0.3 1021679
09:00+9ююв51169100 0.3 1021529
12:00+11ююв596444 0.0 1020664
15:00+12ююв5966100 0.0 1018964
18:00+9ююв4974100 0.4 1018604
21:00+7юв41081100 1.7 1017521
6 октября, чт
чт600:00+8ююв499099 0.2 1015533
03:00+7юв3794100 0.7 1013403
06:00+7юв3895100 1.6 1012441
09:00+8юв369496 1.9 1011406
12:00+10ююз3475100 0.3 1011996
15:00+9ююз357583 0.4 1011388
18:00+7ююз2490100 0.1 1012198
21:00+6юз249569 0.2 1011152
7 октября, пт
пт700:00+7юз2697100 0.1 1010261
03:00+7юз489440 0.1 1009399
06:00+5ююз4988100 0.0 1008378
09:00+5юз41095100 1.7 1007578
12:00+8з41090100 0.1 1007787
15:00+9зюз5118580 0.1 1007804
18:00+8зюз5128997 0.1 1008598
21:00+9з61285100 1.7 1007941